Flag for Mongolia Weather past 2 weeks in Ulaanbaatar, Mongolia

5 °F

Passing clouds.

Feels Like: 5 °F
Forecast: -5 / 15 °F
Wind: No wind

Location: Ulan-Bator

Current Time: Nov 29, 2015 at 6:48:31 AM

Latest Report: Nov 29, 2015 at 6:00 AM

Visibility: 4 mi

Pressure: 30.09 "Hg (25.34 "Hg at 1298m altitude)

Humidity: 85%

Dew point: 1 °F

Location of UlaanbaatarLocation

Historic Weather in Ulaanbaatar — Graph


Ulaanbaatar temperature yesterday

Maximum temperature yesterday: 18 °F (at 1:00 PM)
Minimum temperature yesterday: 3 °F (at 2:00 AM)
Average temperature yesterday: 9 °F

Past Weeks' High & Low Weather Summary

High81 °F (Nov 21, 6:30 AM)92% (Nov 15, 6:00 PM)30.51 "Hg (Nov 15, 6:00 PM)
Low-35 °F (Nov 25, 7:00 AM)1% (Nov 21, 6:30 AM)29.86 "Hg (Nov 14, 5:00 AM)
Average-6 °F76%30.18 "Hg
* Reported Nov 14 5:00 AM — Nov 29 5:30 AM, Ulaanbaatar, Weather by CustomWeather, © 2015

Note: Actual official high and low records may vary slightly from our data, if they occured in-between our weather recording intervals... More about our weather records


Ulaanbaatar weather history for previous 24 hours

Time TempWeatherWind HumidityBarometerVisibility
5:30 AM
Sun, Nov 29
7 °FPassing clouds.No wind85%30.09 "Hg4 mi
4:00 AM9 °FPassing clouds.1 mph85%30.12 "Hg4 mi
3:00 AM9 °FPassing clouds.No wind85%30.12 "Hg4 mi
2:00 AM9 °FPassing clouds.1 mph85%30.12 "Hg4 mi
1:00 AM9 °FPassing clouds.3 mph85%30.12 "Hg5 mi
12:00 AM9 °FPassing clouds.No wind85%30.12 "Hg5 mi
11:30 PM
Sat, Nov 28
9 °FPassing clouds.No wind85%30.12 "Hg5 mi
11:00 PM7 °FPassing clouds.No wind92%30.12 "Hg5 mi
10:30 PM7 °FPassing clouds.No wind85%30.12 "Hg5 mi
10:00 PM5 °FPassing clouds.1 mph92%30.12 "Hg5 mi
9:30 PM5 °FPassing clouds.3 mph85%30.12 "Hg5 mi
9:00 PM7 °FPassing clouds.1 mph92%30.12 "Hg5 mi
8:30 PM7 °FPassing clouds.3 mph92%30.12 "HgN/A
8:00 PM7 °FPassing clouds.3 mph85%30.09 "HgN/A
7:30 PM7 °FPassing clouds.1 mph85%30.09 "HgN/A
7:00 PM7 °FPassing clouds.1 mph85%30.09 "HgN/A
6:30 PM3 °FPassing clouds.1 mph85%30.09 "HgN/A
6:00 PM5 °FScattered clouds.1 mph85%30.07 "HgN/A
5:30 PM7 °FScattered clouds.1 mph85%30.07 "HgN/A
5:00 PM9 °FScattered clouds.No wind85%30.04 "HgN/A
4:30 PM10 °FScattered clouds.3 mph85%30.04 "HgN/A
4:00 PM12 °FScattered clouds.3 mph85%30.04 "HgN/A
2:30 PM16 °FPartly sunny.3 mph79%30.01 "Hg4 mi
2:00 PM18 °FPartly sunny.1 mph73%30.01 "Hg3 mi
1:30 PM16 °FPartly sunny.1 mph79%30.01 "Hg3 mi
1:00 PM18 °FPartly sunny.No wind73%30.01 "Hg3 mi
12:30 PM14 °FScattered clouds.1 mph79%30.01 "Hg3 mi
12:00 PM12 °FScattered clouds.1 mph85%30.01 "Hg3 mi
11:30 AM10 °FLight snow. Partly sunny.1 mph79%30.01 "Hg3 mi
11:00 AM14 °FLight snow. Partly sunny.No wind85%29.98 "Hg3 mi
10:30 AM12 °FLight snow. Scattered clouds.1 mph79%29.98 "Hg3 mi
10:00 AM9 °FLight snow. Scattered clouds.No wind85%29.98 "Hg4 mi
9:30 AM12 °FLight snow. Partly sunny.1 mph85%29.98 "Hg2 mi
8:00 AM12 °FLight snow. Passing clouds.No wind79%29.95 "Hg5 mi
7:00 AM10 °FPassing clouds.1 mph85%29.92 "Hg5 mi
6:30 AM10 °FPassing clouds.No wind85%29.92 "Hg5 mi
6:00 AM10 °FPassing clouds.No wind85%29.92 "Hg5 mi
Weather by CustomWeather, © 2015

See weather overviewHow to use our weather pages